ABS-2A (MONGOLSAT-1) (41588 NORAD) Tracking and Keplerian Element Data

This shows tracking and keplerian element data for the satellite.

Feedback or suggestion? Click here.




ElementValue
Catalog41588
NameABS-2A (MONGOLSAT-1)
Epoch Orbit925
Epoch Day351.55320793
Epoch Year2018
RAAN349.2675
Inclination0.02
Eccentricity0.0001384
Argument of Perigee201.587
Mean Anonmoly169.1425
Mean Motion1.0026829
Decay Rate-6.7E-07
L11 41588U 16038A 18351.55320793 -.00000067 00000-0 00000+0 0 9999
L22 41588 0.0200 349.2675 0001384 201.5870 169.1425 1.00268290 9257

Live tracking and technical data element details for ABS-2A (MONGOLSAT-1) (NORAD 41588). ABS-2A (MONGOLSAT-1) can be tracked NOW for your location showing map with azimuth and elevation plus other details from your city location.

Track the satellite on the map from your city or location and see movement details for azimuth, elevation, latitude, longitude, range, height, and movement on the map or in text.







IsCatalogInMostPopularTable: catalog: 41588, numindb: 144
Update: records affected: 1



GetName: 41588 ABS-2A (MONGOLSAT-1)

Hit Count: updated at: Tue, 18 Dec 2018 21:30:59 GMT